This demonstration page uses our WeatherBlox Daily Observations layout. Learn more.

Left ArrowRight Arrow

39.12711, -84.51439

Hourly Observations for June 2, 2016

Temp ( °F °C ) Dew Point ( °F °C ) Humidity (%) Winds ( mph kmh ) Pressure ( in mb ) Visibility ( mi km ) Precip ( " mm )
12:53 am 00:53 Clear 67 19.4 67 19.4 100 100 N N/A 29.98 1015 9 14 N/A
1:53 am 01:53 Clear with Mist and Fog 67 19.4 67 19.4 100 100 N N/A 29.96 1015 4 6 N/A
2:18 am 02:18 Clear with Mist and Fog 64 18 64 18 100 100 N N/A 29.94 1014 2 2 N/A
2:34 am 02:34 Clear with Mist and Fog 64 18 64 18 100 100 N N/A 29.94 1014 3 5 N/A
2:53 am 02:53 Clear with Mist and Fog 66 18.9 66 18.9 100 100 N N/A 29.96 1015 3 5 N/A
3:22 am 03:22 Clear with Mist and Fog 66 19 66 19 100 100 N N/A 29.94 1014 2 2 N/A
3:33 am 03:33 Clear with Fog 65 18.3 65 18.3 100 100 N N/A 29.94 1014 1 1 N/A
3:46 am 03:46 Clear with Mist and Fog 66 19 66 19 100 100 N N/A 29.94 1014 2 3 N/A
3:53 am 03:53 Mostly Clear with Mist and Fog 65 18.3 65 18.3 100 100 N N/A 29.97 1015 2 3 N/A
4:07 am 04:07 Clear with Mist and Fog 66 18.9 66 18.9 100 100 N N/A 29.97 1015 3 5 N/A
4:13 am 04:13 Mostly Clear with Mist and Fog 65 18.3 65 18.3 100 100 N N/A 29.97 1015 2 3 N/A
4:15 am 04:15 Mostly Cloudy with Mist and Fog 65 18.3 65 18.3 100 100 ENE 3 6 29.97 1015 1 1 N/A
4:26 am 04:26 Mostly Cloudy with Mist and Fog 64 18 64 18 100 100 N N/A 29.97 1015 1 2 N/A
4:28 am 04:28 Partly Cloudy with Mist and Fog 64 18 64 18 100 100 N N/A 29.97 1015 3 4 N/A
4:36 am 04:36 Mostly Clear with Mist and Fog 65 18.3 65 18.3 100 100 N N/A 29.97 1015 3 5 N/A
4:53 am 04:53 Clear with Mist and Fog 64 17.8 64 17.8 100 100 N N/A 29.99 1016 3 5 N/A
5:04 am 05:04 Clear with Mist and Fog 64 18 64 18 100 100 N N/A 29.97 1015 1 2 N/A
5:12 am 05:12 Clear with Fog 64 18 64 18 100 100 N N/A 29.97 1015 1 1 N/A
5:23 am 05:23 Partly Cloudy with Fog 65 18.3 65 18.3 100 100 N N/A 29.97 1015 1 1 N/A
5:34 am 05:34 Mostly Cloudy with Mist and Fog 64 17.8 64 17.8 100 100 N N/A 29.97 1015 2 3 N/A
5:40 am 05:40 Mostly Cloudy with Mist and Fog 64 18 64 18 100 100 N N/A 29.97 1015 3 5 N/A
5:53 am 05:53 Partly Cloudy with Mist and Fog 63 17.2 63 17.2 100 100 WSW 3 6 30.00 1016 2 3 N/A
6:10 am 06:10 Mostly Clear with Mist and Fog 64 18 64 18 100 100 N N/A 29.97 1015 3 5 N/A
6:22 am 06:22 Sunny with Mist and Fog 64 18 64 18 100 100 N N/A 30.00 1016 2 3 N/A
6:47 am 06:47 Partly Cloudy with Mist and Fog 64 18 64 18 100 100 N N/A 30.00 1016 5 8 N/A
6:53 am 06:53 Partly Cloudy with Mist and Fog 65 18.3 65 18.3 100 100 N N/A 30.01 1016 5 8 N/A
7:53 am 07:53 Partly Cloudy with Mist and Fog 68 20 67 19.4 96 96 N N/A 30.02 1017 5 8 N/A
8:53 am 08:53 Mostly Sunny 70 21.1 68 20 93 93 N N/A 30.03 1017 10 16 N/A
9:53 am 09:53 Mostly Cloudy 72 22.2 70 21.1 94 94 N N/A 30.04 1017 8 13 N/A
10:53 am 10:53 Mostly Sunny 74 23.3 70 21.1 88 88 N N/A 30.04 1017 8 13 N/A
11:53 am 11:53 Mostly Sunny 76 24.4 69 20.6 79 79 N N/A 30.05 1018 9 14 N/A
12:53 pm 12:53 Mostly Cloudy with Light Rain 76 24.4 70 21.1 82 82 S 6 9 30.05 1018 10 16 N/A
1:53 pm 13:53 Mostly Sunny 77 25 70 21.1 79 79 SSE 5 7 30.03 1017 10 16 N/A
2:53 pm 14:53 Mostly Sunny 77 25 69 20.6 77 77 SSE 6 9 30.02 1017 10 16 N/A
3:53 pm 15:53 Mostly Sunny 77 25 70 21.1 79 79 SW 7 11 30.01 1016 7 11 N/A
4:31 pm 16:31 Mostly Cloudy with Nearby Thunderstorms 78 25.6 70 21.1 76 76 SSE 3 6 30.00 1016 10 16 N/A
4:38 pm 16:38 Cloudy 79 26 70 21 74 74 SSE 5 7 29.97 1015 10 16 N/A
4:53 pm 16:53 Partly Cloudy 78 25.6 70 21.1 76 76 S 5 7 30.00 1016 10 16 N/A
5:11 pm 17:11 Partly Cloudy with Nearby Thunderstorms 77 25 69 20.6 77 77 N N/A 29.97 1015 10 16 N/A
5:41 pm 17:41 Mostly Cloudy with Thunderstorms 75 23.9 69 20.6 82 82 S 5 7 29.97 1015 10 16 N/A
5:53 pm 17:53 Cloudy with Thunderstorms 74 23.3 70 21.1 88 88 WSW 9 15 30.00 1016 10 16 N/A
6:02 pm 18:02 Cloudy with Thunderstorms 73 23 68 20 83 83 WNW 5 7 29.97 1015 8 13 N/A
6:29 pm 18:29 Cloudy with Light Rain 72 22.2 69 20.6 91 91 WNW 6 9 29.97 1015 4 6 0.03 0.76
6:53 pm 18:53 Mostly Cloudy with Light Rain 71 21.7 69 20.6 94 94 W 8 13 29.98 1015 7 11 0.05 1.27
7:53 pm 19:53 Mostly Cloudy with Light Rain 70 21.1 70 21.1 100 100 S 6 9 30.00 1016 6 10 0.01 0.25
8:53 pm 20:53 Mostly Sunny 68 20 68 20 100 100 S 6 9 30.02 1017 10 16 N/A
9:17 pm 21:17 Partly Cloudy 68 20 68 20 100 100 S 3 6 30.00 1016 9 14 N/A
9:53 pm 21:53 Clear 67 19.4 67 19.4 100 100 S 3 6 30.02 1017 8 13 N/A
10:53 pm 22:53 Clear 66 18.9 66 18.9 100 100 N N/A 30.04 1017 8 13 N/A
11:53 pm 23:53 Clear 66 18.9 66 18.9 100 100 SW 5 7 30.04 1017 7 11 N/A

Powered by AerisWeather